Lid_Strength_Index
6 9 11 9 8 9 10 11 12 10 9 10 10 10 9 7 7 7 6 6 5 5 4 4 2 2 2 2 2 1 1 1 1 1 2 1 2 1 0 -0 -1 -1 -1 -1
8 10 8 7 8 9 9 11 11 9 9 9 10 10 9 8 8 8 7 7 6 5 4 4 4 2 2 2 2 2 1 1 1 1 1 1 1 1 0 -0 -0 -1 -1 -1
11 9 8 8 9 10 10 11 11 11 8 8 9 11 9 8 8 7 7 6 6 6 4 3 4 2 2 2 2 2 1 1 1 1 1 1 0 0 1 1 0 -0 -1 -1
10 9 9 9 10 9 13 8 9 10 11 14 9 15 10 9 8 8 7 7 6 6 4 3 3 4 3 2 2 1 1 1 1 1 1 1 2 3 1 1 0 0 -1 -1
11 10 11 11 10 9 11 8 9 10 11 12 12 15 11 9 9 8 8 7 6 6 5 4 3 3 2 2 2 2 1 1 1 1 1 2 2 1 1 1 1 0 -0 -1
8 7 8 9 8 8 8 11 10 10 12 18 13 14 12 10 9 7 7 6 6 5 5 4 3 3 3 1 2 2 2 1 1 1 1 1 2 2 2 2 2 1 0 0
9 9 7 7 9 8 10 14 19 20 19 18 11 14 12 8 7 6 6 6 5 5 4 4 4 3 3 2 2 2 2 2 1 1 1 1 1 1 1 2 2 2 1 1
14 14 9 7 9 10 10 14 18 22 20 15 12 15 11 7 6 5 5 5 4 5 5 4 4 3 3 3 2 2 2 2 2 1 1 1 1 1 1 1 1 1 1 1
14 13 8 7 7 9 11 15 10 15 14 17 13 10 8 7 7 6 6 5 5 4 4 4 3 3 3 2 2 2 2 2 2 1 1 1 1 1 1 1 0 1 1 1
11 16 9 9 7 8 10 9 15 15 20 20 14 13 12 9 8 7 6 6 5 4 4 4 3 3 3 3 2 1 2 2 2 1 1 1 1 1 1 1 1 1 1 0
10 13 12 10 12 12 12 14 14 12 14 16 16 13 9 9 7 8 7 7 6 5 4 4 3 3 2 2 3 1 2 2 2 2 1 1 1 1 1 1 1 1 0 0
9 13 15 13 9 8 10 12 12 17 16 14 14 14 7 8 8 7 7 6 5 5 4 4 3 3 3 3 2 2 2 2 2 1 1 1 1 1 1 1 1 0 0 0
10 13 16 14 13 11 13 12 12 12 12 15 17 14 8 8 7 6 7 6 5 5 5 4 4 3 3 3 2 2 2 2 1 2 2 2 2 2 2 2 2 0 1 2
8 13 15 17 14 12 14 12 11 14 17 15 14 12 9 8 8 7 6 5 5 5 5 5 4 4 3 3 3 2 2 2 2 2 2 2 2 2 4 4 4 3 4 4
9 14 12 12 11 11 12 12 11 13 12 15 12 12 10 8 8 7 6 6 6 6 5 5 5 4 3 3 3 2 2 2 2 2 2 3 5 5 6 6 5 5 5 6
10 13 12 14 12 11 13 11 11 11 11 11 11 12 8 7 6 7 7 7 7 6 6 5 5 4 4 3 3 2 2 3 2 3 4 6 8 8 8 7 7 7 7 8
13 13 14 16 13 13 16 14 13 13 12 12 14 10 9 9 8 8 8 8 7 6 6 5 5 4 4 3 3 3 3 3 3 6 7 8 9 9 8 8 8 9 10 9
13 14 14 16 14 20 14 10 11 12 12 11 11 10 9 9 8 8 8 8 7 6 7 5 5 4 3 3 3 3 3 6 6 7 8 8 9 9 8 8 9 8 8 8
11 14 16 17 17 14 14 12 13 14 15 10 11 9 9 8 8 11 9 8 8 8 7 6 5 4 4 4 5 5 6 8 8 8 8 8 8 8 8 9 9 8 9 9
11 13 15 16 18 20 14 11 11 11 16 10 11 10 9 10 15 14 10 10 9 8 8 7 6 6 7 7 7 7 7 8 9 9 9 8 9 8 9 8 8 9 9 10
14 14 17 16 17 15 12 12 11 17 15 11 10 10 11 13 12 11 10 10 10 10 9 8 8 8 8 8 9 8 9 9 8 10 9 10 9 9 9 9 9 10 11 11
15 16 15 15 17 18 11 13 15 12 10 10 10 10 11 11 11 11 11 10 11 11 10 10 10 10 9 8 8 9 9 8 8 10 10 10 9 9 10 10 10 10 10 12
15 14 16 15 15 11 11 11 9 8 9 8 9 10 10 11 12 11 11 11 11 11 10 10 10 11 10 10 11 11 9 8 9 9 9 9 9 10 10 10 10 11 11 11
13 11 14 14 12 12 11 10 8 8 9 8 9 9 9 11 11 11 11 11 11 11 10 10 11 11 11 10 11 12 11 10 9 10 10 10 10 10 10 10 10 11 11 10
13 12 13 13 12 11 12 10 9 8 8 9 9 9 9 10 11 11 11 11 11 11 10 10 10 11 11 10 11 11 11 11 12 12 11 12 11 11 10 10 10 10 9 10
10 12 14 15 12 12 13 10 9 10 10 9 9 9 9 9 11 11 11 11 11 11 11 11 11 11 11 11 11 11 12 12 12 13 12 12 12 13 12 12 12 15 14 15